{"data":{"norad_id":45859,"epoch":"2026-05-25T00:16:57.339264Z","epoch_age_seconds":64145,"freshness":"FRESH","line1":"1 45859U 20043A   26145.01177476  .00000204  00000+0  47328-4 0  9994","line2":"2 45859  98.1848 156.5698 0127653 299.3351  59.5146 14.60918706313477","mean_motion":14.60918706,"eccentricity":0.0127653,"inclination_deg":98.1848,"raan_deg":156.5698,"arg_perigee_deg":299.3351,"mean_anomaly_deg":59.5146,"bstar":4.7328e-5,"rev_number":31347,"period_min":98.568112933725,"perigee_km":599.97956629474,"apogee_km":780.43868387584,"semimajor_km":7068.3461250853,"source":"CELESTRAK","updated_at":"2026-05-25T13:37:56.251809Z"}}